Simultaneous Nadir Overpasses (SNOs) Predictions

Prediction of SNOs between METOP-B and NOAA-19 Satellite Orbit:

Table of predicted SNOs for the next 14.0 days since TLE Epoch: 9/5/2014
Index Date (METOP-B) Time (METOP-B) Lat,Lon (METOP-B) SZA (METOP-B ) Date (NOAA-19) Time (NOAA-19) Lat,Lon (NOAA-19) SZA (NOAA-19 ) Distance(km) Time Diff (sec)
1 09/14/2014 05:20:42 74.54, 95.80 71.03 09/14/2014 05:19:31 74.56, 94.48 71.08 39.44 71
2 09/14/2014 06:11:29 -74.29, -97.51 109.19 09/14/2014 06:10:24 -74.30, -97.58 109.17 2.59 65
3 09/14/2014 07:02:09 74.27, 69.77 70.80 09/14/2014 07:01:28 74.25, 69.80 70.79 2.52 41
4 09/14/2014 07:52:51 -74.27,-122.90 109.19 09/14/2014 07:52:26 -74.23,-122.91 109.22 3.83 25
5 09/14/2014 08:43:31 74.25, 44.38 70.81 09/14/2014 08:43:31 74.22, 44.34 70.79 2.61 0
6 09/14/2014 09:34:14 -74.20,-148.42 109.23 09/14/2014 09:34:29 -74.21,-148.36 109.22 2.47 15
7 09/14/2014 10:24:54 74.17, 18.86 70.77 09/14/2014 10:25:34 74.20, 18.89 70.79 3.21 40
8 09/14/2014 11:15:36 -74.17,-173.82 109.22 09/14/2014 11:16:32 -74.19,-173.82 109.21 1.76 56
9 09/14/2014 12:06:21 73.91, -7.14 70.54 09/14/2014 12:07:32 73.94, -5.94 70.54 37.14 71




NCC Satellite Simultaneous Nadir Overpasses (SNOs) Prediction Service
